Location: Street
(51.1247°N, 2.7429°W)
Time: 08:54:56
(UTC+01:00)

X-37B - Pass Details

Date: 10 August 2021
Orbit: 381 x 393 km, 45.0° (Epoch: 29 August)

Event Time Altitude Azimuth Distance (km) Brightness Sun altitude
Exits shadow 03:50:36 25° 166° (SSE) 808 1.8 -15.3°
Drops below altitude 10° 03:52:51 10° 123° (ESE) 1,397 3.5 -15.1°
Sets 03:55:05 0° 110° (ESE) 2,249 4.7 -14.9°
